Time,TemperatureF,DewpointF,PressureIn,WindDirection,WindDirectionDegrees,WindSpeedMPH,WindSpeedGustMPH,Humidity,HourlyPrecipIn,Conditions,Clouds,dailyrainin,SoftwareType,DateUTC
2015-01-30 00:00:00,28.1,19.2,30.13,NNW,339,7.0,11.0,69,0.00,,,0.00,Wunderground v.1.15,2015-01-30 05:00:00,
2015-01-30 00:05:00,27.9,19.0,30.14,NW,306,8.0,11.0,69,0.00,,,0.00,Wunderground v.1.15,2015-01-30 05:05:00,
2015-01-30 00:10:00,27.7,18.8,30.14,North,354,7.0,7.0,69,0.00,,,0.00,Wunderground v.1.15,2015-01-30 05:10:00,
2015-01-30 00:15:00,27.4,18.9,30.15,WNW,293,6.0,7.0,70,0.00,,,0.00,Wunderground v.1.15,2015-01-30 05:15:00,
2015-01-30 00:20:00,27.2,18.7,30.15,NNE,32,5.0,5.0,70,0.00,,,0.00,Wunderground v.1.15,2015-01-30 05:20:00,
2015-01-30 00:30:00,27.0,18.5,30.15,WSW,257,5.0,5.0,70,0.00,,,0.00,Wunderground v.1.15,2015-01-30 05:30:00,
2015-01-30 00:35:00,26.8,18.3,30.15,NW,326,5.0,6.0,70,0.00,,,0.00,Wunderground v.1.15,2015-01-30 05:35:00,
2015-01-30 00:40:00,26.5,18.4,30.16,NNW,333,6.0,17.0,71,0.00,,,0.00,Wunderground v.1.15,2015-01-30 05:40:00,
2015-01-30 00:45:00,26.1,17.3,30.17,West,266,7.0,17.0,69,0.00,,,0.00,Wunderground v.1.15,2015-01-30 05:45:00,
2015-01-30 00:50:00,25.7,16.9,30.16,West,279,8.0,8.0,69,0.00,,,0.00,Wunderground v.1.15,2015-01-30 05:50:00,
2015-01-30 01:00:00,25.3,17.2,30.17,WNW,300,9.0,9.0,71,0.00,,,0.00,Wunderground v.1.15,2015-01-30 06:00:00,
2015-01-30 01:05:00,25.0,16.6,30.17,NE,46,10.0,10.0,70,0.00,,,0.00,Wunderground v.1.15,2015-01-30 06:05:00,
2015-01-30 01:10:00,24.8,16.4,30.17,NNW,327,8.0,13.0,70,0.00,,,0.00,Wunderground v.1.15,2015-01-30 06:10:00,
2015-01-30 01:15:00,24.5,16.1,30.18,NNW,342,6.0,13.0,70,0.00,,,0.00,Wunderground v.1.15,2015-01-30 06:15:00,
2015-01-30 01:20:00,24.2,15.8,30.18,North,6,7.0,8.0,70,0.00,,,0.00,Wunderground v.1.15,2015-01-30 06:20:00,
2015-01-30 01:30:00,23.9,15.5,30.18,NNW,328,6.0,9.0,70,0.00,,,0.00,Wunderground v.1.15,2015-01-30 06:30:00,
2015-01-30 01:35:00,23.8,15.4,30.18,WNW,301,6.0,9.0,70,0.00,,,0.00,Wunderground v.1.15,2015-01-30 06:35:00,
2015-01-30 01:40:00,23.7,15.3,30.18,NW,305,6.0,7.0,70,0.00,,,0.00,Wunderground v.1.15,2015-01-30 06:40:00,
2015-01-30 01:45:00,23.7,15.3,30.18,NNW,327,5.0,7.0,70,0.00,,,0.00,Wunderground v.1.15,2015-01-30 06:45:00,
2015-01-30 01:55:00,23.6,15.2,30.19,North,360,5.0,5.0,70,0.00,,,0.00,Wunderground v.1.15,2015-01-30 06:55:00,
2015-01-30 02:00:00,23.5,15.1,30.19,NW,306,5.0,5.0,70,0.00,,,0.00,Wunderground v.1.15,2015-01-30 07:00:00,
2015-01-30 02:10:00,23.4,15.4,30.19,NW,310,4.0,4.0,71,0.00,,,0.00,Wunderground v.1.15,2015-01-30 07:10:00,
2015-01-30 02:15:00,23.3,15.3,30.19,NNE,33,5.0,7.0,71,0.00,,,0.00,Wunderground v.1.15,2015-01-30 07:15:00,
2015-01-30 02:20:00,23.2,14.9,30.20,NW,314,6.0,6.0,70,0.00,,,0.00,Wunderground v.1.15,2015-01-30 07:20:00,
2015-01-30 02:30:00,22.9,14.9,30.20,NW,325,5.0,5.0,71,0.00,,,0.00,Wunderground v.1.15,2015-01-30 07:30:00,
2015-01-30 02:35:00,22.7,15.0,30.20,NW,304,4.0,5.0,72,0.00,,,0.00,Wunderground v.1.15,2015-01-30 07:35:00,
2015-01-30 02:40:00,22.6,15.2,30.21,WSW,254,3.0,3.0,73,0.00,,,0.00,Wunderground v.1.15,2015-01-30 07:40:00,
2015-01-30 02:50:00,22.5,15.5,30.21,NNW,335,4.0,4.0,74,0.00,,,0.00,Wunderground v.1.15,2015-01-30 07:50:00,
2015-01-30 02:55:00,22.4,15.4,30.21,WNW,297,3.0,4.0,74,0.00,,,0.00,Wunderground v.1.15,2015-01-30 07:55:00,
2015-01-30 03:05:00,22.5,15.5,30.22,NNW,331,3.0,4.0,74,0.00,,,0.00,Wunderground v.1.15,2015-01-30 08:05:00,
2015-01-30 03:10:00,22.5,15.5,30.22,NW,314,5.0,5.0,74,0.00,,,0.00,Wunderground v.1.15,2015-01-30 08:10:00,
2015-01-30 03:15:00,22.5,15.5,30.22,North,353,4.0,5.0,74,0.00,,,0.00,Wunderground v.1.15,2015-01-30 08:15:00,
2015-01-30 03:20:00,22.4,15.4,30.22,NNW,342,3.0,4.0,74,0.00,,,0.00,Wunderground v.1.15,2015-01-30 08:20:00,
2015-01-30 03:30:00,22.4,15.7,30.23,NW,323,4.0,4.0,75,0.00,,,0.00,Wunderground v.1.15,2015-01-30 08:30:00,
2015-01-30 03:40:00,22.4,16.0,30.24,WNW,293,4.0,4.0,76,0.00,,,0.00,Wunderground v.1.15,2015-01-30 08:40:00,
2015-01-30 03:45:00,22.2,16.4,30.24,WNW,293,5.0,5.0,78,0.00,,,0.00,Wunderground v.1.15,2015-01-30 08:45:00,
2015-01-30 03:50:00,21.9,16.4,30.24,WNW,287,6.0,7.0,79,0.00,,,0.00,Wunderground v.1.15,2015-01-30 08:50:00,
2015-01-30 03:55:00,21.7,14.4,30.24,NW,312,6.0,11.0,73,0.00,,,0.00,Wunderground v.1.15,2015-01-30 08:55:00,
2015-01-30 04:00:00,21.6,13.6,30.25,North,10,7.0,7.0,71,0.00,,,0.00,Wunderground v.1.15,2015-01-30 09:00:00,
2015-01-30 04:10:00,20.6,12.4,30.25,NNW,342,8.0,8.0,70,0.00,,,0.00,Wunderground v.1.15,2015-01-30 09:10:00,
2015-01-30 04:20:00,-999.9,-99.9,30.26,North,32767,-999.0,0.0,255,-99.99,,,0.00,Wunderground v.1.15,2015-01-30 09:20:00,
2015-01-30 04:25:00,-999.9,-99.9,30.26,North,32767,-999.0,0.0,255,-99.99,,,0.00,Wunderground v.1.15,2015-01-30 09:25:00,
2015-01-30 04:30:00,-999.9,-99.9,30.26,North,32767,-999.0,0.0,255,-99.99,,,0.00,Wunderground v.1.15,2015-01-30 09:30:00,
2015-01-30 04:35:00,-999.9,-99.9,30.26,North,32767,-999.0,0.0,255,-99.99,,,0.00,Wunderground v.1.15,2015-01-30 09:35:00,
2015-01-30 04:40:00,-999.9,-99.9,30.27,North,32767,-999.0,0.0,255,-99.99,,,0.00,Wunderground v.1.15,2015-01-30 09:40:00,
2015-01-30 04:50:00,-999.9,-99.9,30.27,North,32767,-999.0,0.0,255,-99.99,,,0.00,Wunderground v.1.15,2015-01-30 09:50:00,
2015-01-30 05:00:00,-999.9,-99.9,30.29,North,32767,-999.0,0.0,255,-99.99,,,0.00,Wunderground v.1.15,2015-01-30 10:00:00,
2015-01-30 05:05:00,-999.9,-99.9,30.28,North,32767,-999.0,0.0,255,-99.99,,,0.00,Wunderground v.1.15,2015-01-30 10:05:00,
2015-01-30 05:10:00,-999.9,-99.9,30.29,North,32767,-999.0,0.0,255,-99.99,,,0.00,Wunderground v.1.15,2015-01-30 10:10:00,
2015-01-30 05:15:00,-999.9,-99.9,30.29,North,32767,-999.0,0.0,255,-99.99,,,0.00,Wunderground v.1.15,2015-01-30 10:15:00,
2015-01-30 05:20:00,-999.9,-99.9,30.30,North,32767,-999.0,0.0,255,-99.99,,,0.00,Wunderground v.1.15,2015-01-30 10:20:00,
2015-01-30 05:25:00,-999.9,-99.9,30.30,North,32767,-999.0,0.0,255,-99.99,,,0.00,Wunderground v.1.15,2015-01-30 10:25:00,
2015-01-30 05:30:00,-999.9,-99.9,30.30,North,32767,-999.0,0.0,255,-99.99,,,0.00,Wunderground v.1.15,2015-01-30 10:30:00,
2015-01-30 05:40:00,-999.9,-99.9,30.31,North,32767,-999.0,0.0,255,-99.99,,,0.00,Wunderground v.1.15,2015-01-30 10:40:00,
2015-01-30 05:45:00,-999.9,-99.9,30.32,North,32767,-999.0,0.0,255,-99.99,,,0.00,Wunderground v.1.15,2015-01-30 10:45:00,
2015-01-30 05:50:00,-999.9,-99.9,30.32,North,32767,-999.0,0.0,255,-99.99,,,0.00,Wunderground v.1.15,2015-01-30 10:50:00,
2015-01-30 05:55:00,-999.9,-99.9,30.32,North,32767,-999.0,0.0,255,-99.99,,,0.00,Wunderground v.1.15,2015-01-30 10:55:00,
2015-01-30 06:00:00,-999.9,-99.9,30.33,North,32767,-999.0,0.0,255,-99.99,,,0.00,Wunderground v.1.15,2015-01-30 11:00:00,
2015-01-30 06:05:00,-999.9,-99.9,30.33,North,32767,-999.0,0.0,255,-99.99,,,0.00,Wunderground v.1.15,2015-01-30 11:05:00,
2015-01-30 06:15:00,-999.9,-99.9,30.33,North,32767,-999.0,0.0,255,-99.99,,,0.00,Wunderground v.1.15,2015-01-30 11:15:00,
2015-01-30 06:20:00,-999.9,-99.9,30.34,North,32767,-999.0,0.0,255,-99.99,,,0.00,Wunderground v.1.15,2015-01-30 11:20:00,
2015-01-30 06:25:00,-999.9,-99.9,30.34,North,32767,-999.0,0.0,255,-99.99,,,0.00,Wunderground v.1.15,2015-01-30 11:25:00,
2015-01-30 06:35:00,-999.9,-99.9,30.35,North,32767,-999.0,0.0,255,-99.99,,,0.00,Wunderground v.1.15,2015-01-30 11:35:00,
2015-01-30 06:40:00,-999.9,-99.9,30.35,North,32767,-999.0,0.0,255,-99.99,,,0.00,Wunderground v.1.15,2015-01-30 11:40:00,
2015-01-30 06:45:00,-999.9,-99.9,30.36,North,32767,-999.0,0.0,255,-99.99,,,0.00,Wunderground v.1.15,2015-01-30 11:45:00,
2015-01-30 06:50:00,-999.9,-99.9,30.36,North,32767,-999.0,0.0,255,-99.99,,,0.00,Wunderground v.1.15,2015-01-30 11:50:00,
2015-01-30 06:55:00,-999.9,-99.9,30.36,North,32767,-999.0,0.0,255,-99.99,,,0.00,Wunderground v.1.15,2015-01-30 11:55:00,
2015-01-30 07:05:00,-999.9,-99.9,30.37,North,32767,-999.0,0.0,255,-99.99,,,0.00,Wunderground v.1.15,2015-01-30 12:05:00,
2015-01-30 07:10:00,-999.9,-99.9,30.38,North,32767,-999.0,0.0,255,-99.99,,,0.00,Wunderground v.1.15,2015-01-30 12:10:00,
2015-01-30 07:15:00,-999.9,-99.9,30.38,North,32767,-999.0,0.0,255,-99.99,,,0.00,Wunderground v.1.15,2015-01-30 12:15:00,
2015-01-30 07:20:00,-999.9,-99.9,30.39,North,32767,-999.0,0.0,255,-99.99,,,0.00,Wunderground v.1.15,2015-01-30 12:20:00,
2015-01-30 07:25:00,-999.9,-99.9,30.39,North,32767,-999.0,0.0,255,-99.99,,,0.00,Wunderground v.1.15,2015-01-30 12:25:00,
2015-01-30 07:30:00,-999.9,-99.9,30.39,North,32767,-999.0,0.0,255,-99.99,,,0.00,Wunderground v.1.15,2015-01-30 12:30:00,
2015-01-30 07:40:00,-999.9,-99.9,30.40,North,32767,-999.0,0.0,255,-99.99,,,0.00,Wunderground v.1.15,2015-01-30 12:40:00,
2015-01-30 07:50:00,-999.9,-99.9,30.40,North,32767,-999.0,0.0,255,-99.99,,,0.00,Wunderground v.1.15,2015-01-30 12:50:00,
2015-01-30 07:55:00,-999.9,-99.9,30.41,North,32767,-999.0,0.0,255,-99.99,,,0.00,Wunderground v.1.15,2015-01-30 12:55:00,
2015-01-30 08:00:00,14.8,7.1,30.41,NW,306,10.0,10.0,71,0.00,,,0.00,Wunderground v.1.15,2015-01-30 13:00:00,
2015-01-30 08:05:00,14.8,6.8,30.42,West,272,5.0,10.0,70,0.00,,,0.00,Wunderground v.1.15,2015-01-30 13:05:00,
2015-01-30 08:15:00,14.6,6.9,30.42,NW,307,5.0,9.0,71,0.00,,,0.00,Wunderground v.1.15,2015-01-30 13:15:00,
2015-01-30 08:20:00,14.5,6.5,30.43,NNW,328,5.0,5.0,70,0.00,,,0.00,Wunderground v.1.15,2015-01-30 13:20:00,
2015-01-30 08:30:00,14.4,6.4,30.43,West,280,5.0,5.0,70,0.00,,,0.00,Wunderground v.1.15,2015-01-30 13:30:00,
2015-01-30 08:35:00,14.3,6.3,30.43,NW,314,5.0,5.0,70,0.00,,,0.00,Wunderground v.1.15,2015-01-30 13:35:00,
2015-01-30 08:40:00,14.4,6.4,30.44,NNE,20,5.0,10.0,70,0.00,,,0.00,Wunderground v.1.15,2015-01-30 13:40:00,
2015-01-30 08:50:00,14.8,6.8,30.44,NW,305,4.0,4.0,70,0.00,,,0.00,Wunderground v.1.15,2015-01-30 13:50:00,
2015-01-30 08:55:00,15.1,6.8,30.44,NNW,345,5.0,5.0,69,0.00,,,0.00,Wunderground v.1.15,2015-01-30 13:55:00,
2015-01-30 09:00:00,15.2,6.8,30.44,North,9,5.0,9.0,69,0.00,,,0.00,Wunderground v.1.15,2015-01-30 14:00:00,
2015-01-30 09:10:00,15.6,7.2,30.45,NW,318,5.0,6.0,69,0.00,,,0.00,Wunderground v.1.15,2015-01-30 14:10:00,
2015-01-30 09:15:00,15.7,7.3,30.45,NE,56,5.0,6.0,69,0.00,,,0.00,Wunderground v.1.15,2015-01-30 14:15:00,
2015-01-30 09:20:00,15.6,6.9,30.46,NW,316,5.0,7.0,68,0.00,,,0.00,Wunderground v.1.15,2015-01-30 14:20:00,
2015-01-30 09:25:00,15.5,6.8,30.46,West,281,5.0,7.0,68,0.00,,,0.00,Wunderground v.1.15,2015-01-30 14:25:00,
2015-01-30 09:30:00,15.4,7.0,30.46,WNW,301,6.0,6.0,69,0.00,,,0.00,Wunderground v.1.15,2015-01-30 14:30:00,
2015-01-30 09:35:00,15.2,6.5,30.46,NNW,328,7.0,9.0,68,0.00,,,0.00,Wunderground v.1.15,2015-01-30 14:35:00,
2015-01-30 09:40:00,15.2,6.8,30.46,WNW,301,6.0,6.0,69,0.00,,,0.00,Wunderground v.1.15,2015-01-30 14:40:00,
2015-01-30 09:45:00,15.3,6.6,30.47,NW,304,5.0,7.0,68,0.00,,,0.00,Wunderground v.1.15,2015-01-30 14:45:00,
2015-01-30 09:55:00,15.7,7.0,30.47,NW,319,7.0,7.0,68,0.00,,,0.00,Wunderground v.1.15,2015-01-30 14:55:00,
2015-01-30 10:00:00,16.1,7.4,30.47,East,95,5.0,5.0,68,0.00,,,0.00,Wunderground v.1.15,2015-01-30 15:00:00,
2015-01-30 10:05:00,16.6,7.2,30.47,WNW,291,4.0,5.0,66,0.00,,,0.00,Wunderground v.1.15,2015-01-30 15:05:00,
2015-01-30 10:10:00,17.0,7.9,30.48,NW,305,3.0,6.0,67,0.00,,,0.00,Wunderground v.1.15,2015-01-30 15:10:00,
2015-01-30 10:15:00,16.8,7.4,30.48,West,280,4.0,6.0,66,0.00,,,0.00,Wunderground v.1.15,2015-01-30 15:15:00,
2015-01-30 10:25:00,16.0,5.6,30.48,NW,306,6.0,12.0,63,0.00,,,0.00,Wunderground v.1.15,2015-01-30 15:25:00,
2015-01-30 10:30:00,15.9,5.2,30.49,WNW,283,9.0,9.0,62,0.00,,,0.00,Wunderground v.1.15,2015-01-30 15:30:00,
2015-01-30 10:35:00,15.9,4.8,30.49,NW,314,8.0,9.0,61,0.00,,,0.00,Wunderground v.1.15,2015-01-30 15:35:00,
2015-01-30 10:40:00,16.1,5.4,30.49,NW,326,6.0,6.0,62,0.00,,,0.00,Wunderground v.1.15,2015-01-30 15:40:00,
2015-01-30 10:45:00,16.0,4.9,30.50,WNW,295,7.0,7.0,61,0.00,,,0.00,Wunderground v.1.15,2015-01-30 15:45:00,
2015-01-30 10:50:00,16.2,5.1,30.50,NW,312,7.0,7.0,61,0.00,,,0.00,Wunderground v.1.15,2015-01-30 15:50:00,
2015-01-30 11:00:00,16.3,5.2,30.50,WNW,283,7.0,7.0,61,0.00,,,0.00,Wunderground v.1.15,2015-01-30 16:00:00,
2015-01-30 11:05:00,16.4,5.3,30.50,NNW,328,6.0,15.0,61,0.00,,,0.00,Wunderground v.1.15,2015-01-30 16:05:00,
2015-01-30 11:10:00,16.3,4.8,30.50,North,352,7.0,8.0,60,0.00,,,0.00,Wunderground v.1.15,2015-01-30 16:10:00,
2015-01-30 11:15:00,16.7,5.9,30.50,NW,319,7.0,8.0,62,0.00,,,0.00,Wunderground v.1.15,2015-01-30 16:15:00,
2015-01-30 11:20:00,16.8,5.3,30.50,WNW,294,6.0,6.0,60,0.00,,,0.00,Wunderground v.1.15,2015-01-30 16:20:00,
2015-01-30 11:25:00,16.8,6.0,30.50,NNW,331,6.0,6.0,62,0.00,,,0.00,Wunderground v.1.15,2015-01-30 16:25:00,
2015-01-30 11:30:00,17.2,6.4,30.50,NNW,332,5.0,7.0,62,0.00,,,0.00,Wunderground v.1.15,2015-01-30 16:30:00,
2015-01-30 11:40:00,17.0,5.5,30.51,North,10,6.0,6.0,60,0.00,,,0.00,Wunderground v.1.15,2015-01-30 16:40:00,
2015-01-30 11:45:00,17.0,5.1,30.51,NNW,345,5.0,10.0,59,0.00,,,0.00,Wunderground v.1.15,2015-01-30 16:45:00,
2015-01-30 11:50:00,16.7,4.8,30.50,North,352,8.0,8.0,59,0.00,,,0.00,Wunderground v.1.15,2015-01-30 16:50:00,
2015-01-30 11:55:00,16.6,5.1,30.50,NNW,341,9.0,9.0,60,0.00,,,0.00,Wunderground v.1.15,2015-01-30 16:55:00,
2015-01-30 12:00:00,17.0,5.9,30.50,NE,37,7.0,7.0,61,0.00,,,0.00,Wunderground v.1.15,2015-01-30 17:00:00,
2015-01-30 12:10:00,17.1,5.6,30.50,NW,312,7.0,7.0,60,0.00,,,0.00,Wunderground v.1.15,2015-01-30 17:10:00,
2015-01-30 12:15:00,17.3,5.4,30.50,West,274,6.0,7.0,59,0.00,,,0.00,Wunderground v.1.15,2015-01-30 17:15:00,
2015-01-30 12:20:00,17.4,5.5,30.50,North,9,6.0,6.0,59,0.00,,,0.00,Wunderground v.1.15,2015-01-30 17:20:00,
2015-01-30 12:25:00,17.4,5.9,30.50,NW,319,7.0,14.0,60,0.00,,,0.00,Wunderground v.1.15,2015-01-30 17:25:00,
2015-01-30 12:30:00,17.5,6.0,30.50,NE,40,7.0,7.0,60,0.00,,,0.00,Wunderground v.1.15,2015-01-30 17:30:00,
2015-01-30 12:35:00,17.7,5.8,30.50,WNW,291,7.0,7.0,59,0.00,,,0.00,Wunderground v.1.15,2015-01-30 17:35:00,
2015-01-30 12:45:00,18.2,6.3,30.50,NNE,18,4.0,8.0,59,0.00,,,0.00,Wunderground v.1.15,2015-01-30 17:45:00,
2015-01-30 12:50:00,18.5,6.5,30.49,WNW,289,4.0,4.0,59,0.00,,,0.00,Wunderground v.1.15,2015-01-30 17:50:00,
2015-01-30 12:55:00,18.7,6.0,30.49,WNW,296,4.0,5.0,57,0.00,,,0.00,Wunderground v.1.15,2015-01-30 17:55:00,
2015-01-30 13:00:00,18.2,5.5,30.49,NNW,329,5.0,5.0,57,0.00,,,0.00,Wunderground v.1.15,2015-01-30 18:00:00,
2015-01-30 13:05:00,18.5,6.2,30.49,WNW,288,6.0,6.0,58,0.00,,,0.00,Wunderground v.1.15,2015-01-30 18:05:00,
2015-01-30 13:10:00,18.6,6.6,30.49,NNE,29,5.0,5.0,59,0.00,,,0.00,Wunderground v.1.15,2015-01-30 18:10:00,
2015-01-30 13:20:00,18.6,5.9,30.48,NW,311,5.0,6.0,57,0.00,,,0.00,Wunderground v.1.15,2015-01-30 18:20:00,
2015-01-30 13:25:00,18.7,6.4,30.48,NNW,331,5.0,6.0,58,0.00,,,0.00,Wunderground v.1.15,2015-01-30 18:25:00,
2015-01-30 13:30:00,18.9,6.9,30.48,NW,311,5.0,5.0,59,0.00,,,0.00,Wunderground v.1.15,2015-01-30 18:30:00,
2015-01-30 13:35:00,19.3,7.7,30.48,NW,319,6.0,6.0,60,0.00,,,0.00,Wunderground v.1.15,2015-01-30 18:35:00,
2015-01-30 13:40:00,19.3,6.5,30.48,NE,39,5.0,10.0,57,0.00,,,0.00,Wunderground v.1.15,2015-01-30 18:40:00,
2015-01-30 13:45:00,19.3,6.5,30.49,NNW,347,6.0,10.0,57,0.00,,,0.00,Wunderground v.1.15,2015-01-30 18:45:00,
2015-01-30 13:50:00,19.4,6.6,30.49,NW,308,6.0,6.0,57,0.00,,,0.00,Wunderground v.1.15,2015-01-30 18:50:00,
2015-01-30 13:55:00,19.2,6.1,30.49,NW,321,6.0,6.0,56,0.00,,,0.00,Wunderground v.1.15,2015-01-30 18:55:00,
2015-01-30 14:00:00,19.4,6.6,30.49,WNW,300,5.0,8.0,57,0.00,,,0.00,Wunderground v.1.15,2015-01-30 19:00:00,
2015-01-30 14:10:00,19.7,6.1,30.48,NW,319,4.0,7.0,55,0.00,,,0.00,Wunderground v.1.15,2015-01-30 19:10:00,
2015-01-30 14:15:00,19.8,6.6,30.48,WNW,294,3.0,7.0,56,0.00,,,0.00,Wunderground v.1.15,2015-01-30 19:15:00,
2015-01-30 14:25:00,20.2,5.8,30.49,NW,308,4.0,6.0,53,0.00,,,0.00,Wunderground v.1.15,2015-01-30 19:25:00,
2015-01-30 14:30:00,20.1,6.1,30.48,WNW,295,5.0,5.0,54,0.00,,,0.00,Wunderground v.1.15,2015-01-30 19:30:00,